| time (UTC) | temp C | wind direction | speed KPH | gust KPH | rain 1hr cm | rain 24hr cm | rain mn cm | humidity % | barometer mb |
| 20260505070003 | 9 | 341 | 12.9 | 19.3 | 0.00 | 0.00 | 0.00 | 82 | 1017.3 |
| 20260505065403 | 9 | 342 | 11.3 | 16.1 | 0.00 | 0.00 | 0.00 | 83 | 1017.4 |
| 20260505064503 | 9 | 340 | 12.9 | 16.1 | 0.00 | 0.00 | 0.00 | 84 | 1017.3 |
| 20260505063603 | 8 | 339 | 11.3 | 16.1 | 0.00 | 0.00 | 0.00 | 84 | 1017.4 |
| 20260505062703 | 8 | 339 | 12.9 | 16.1 | 0.00 | 0.00 | 0.00 | 84 | 1017.4 |
| 20260505061803 | 8 | 337 | 12.9 | 17.7 | 0.00 | 0.00 | 0.00 | 84 | 1017.4 |
| 20260505060903 | 8 | 337 | 14.5 | 22.5 | 0.00 | 0.00 | 0.00 | 85 | 1017.4 |
| 20260505060003 | 8 | 338 | 14.5 | 19.3 | 0.00 | 0.00 | 0.00 | 85 | 1017.3 |
| 20260505055403 | 8 | 336 | 14.5 | 19.3 | 0.00 | 0.00 | 0.00 | 85 | 1017.3 |
| 20260505054503 | 8 | 337 | 14.5 | 19.3 | 0.00 | 0.00 | 0.00 | 85 | 1017.2 |
| 20260505053603 | 8 | 335 | 14.5 | 19.3 | 0.00 | 0.00 | 0.00 | 85 | 1017.2 |
| 20260505052703 | 8 | 336 | 12.9 | 17.7 | 0.00 | 0.00 | 0.00 | 86 | 1017.2 |
| 20260505051803 | 8 | 337 | 12.9 | 17.7 | 0.00 | 0.00 | 0.00 | 85 | 1017.2 |
| 20260505050903 | 8 | 336 | 11.3 | 16.1 | 0.00 | 0.00 | 0.00 | 85 | 1017.2 |
| 20260505040903 | 8 | 337 | 16.1 | 20.9 | 0.00 | 0.00 | 0.00 | 85 | 1017.0 |
| 20260505040004 | 8 | 336 | 14.5 | 20.9 | 0.00 | 0.00 | 0.00 | 85 | 1017.1 |
| 20260505035403 | 8 | 335 | 14.5 | 20.9 | 0.00 | 0.00 | 0.00 | 85 | 1017.1 |
| 20260505034503 | 8 | 336 | 14.5 | 19.3 | 0.00 | 0.00 | 0.00 | 85 | 1017.2 |
| 20260505033603 | 8 | 335 | 14.5 | 20.9 | 0.00 | 0.00 | 0.00 | 85 | 1017.2 |
| 20260505032703 | 8 | 334 | 12.9 | 20.9 | 0.00 | 0.00 | 0.00 | 85 | 1017.2 |
| 20260505031803 | 8 | 336 | 12.9 | 17.7 | 0.00 | 0.00 | 0.00 | 84 | 1017.3 |
| 20260505030903 | 8 | 338 | 11.3 | 16.1 | 0.00 | 0.00 | 0.00 | 84 | 1017.3 |
| 20260505030003 | 8 | 337 | 9.7 | 16.1 | 0.00 | 0.00 | 0.00 | 84 | 1017.3 |
| 20260505025403 | 8 | 334 | 9.7 | 14.5 | 0.00 | 0.00 | 0.00 | 84 | 1017.3 |
| 20260505024503 | 8 | 334 | 9.7 | 16.1 | 0.00 | 0.00 | 0.00 | 84 | 1017.4 |
| 20260505023603 | 8 | 332 | 8.0 | 16.1 | 0.00 | 0.00 | 0.00 | 84 | 1017.4 |
| 20260505022703 | 8 | 332 | 9.7 | 17.7 | 0.00 | 0.00 | 0.00 | 83 | 1017.4 |
| 20260505021803 | 8 | 336 | 12.9 | 17.7 | 0.00 | 0.00 | 0.00 | 83 | 1017.4 |
| 20260505020903 | 8 | 337 | 14.5 | 19.3 | 0.00 | 0.00 | 0.00 | 83 | 1017.4 |
| 20260505020003 | 8 | 336 | 14.5 | 24.1 | 0.00 | 0.00 | 0.00 | 82 | 1017.4 |
| 20260505015403 | 8 | 336 | 16.1 | 24.1 | 0.00 | 0.00 | 0.00 | 82 | 1017.4 |
| 20260505014503 | 8 | 336 | 16.1 | 22.5 | 0.00 | 0.00 | 0.00 | 82 | 1017.5 |
| 20260505013603 | 8 | 334 | 14.5 | 22.5 | 0.00 | 0.00 | 0.00 | 82 | 1017.5 |
| 20260505012703 | 8 | 334 | 12.9 | 24.1 | 0.00 | 0.00 | 0.00 | 82 | 1017.5 |
| 20260505011803 | 8 | 333 | 12.9 | 22.5 | 0.00 | 0.00 | 0.00 | 81 | 1017.6 |
| 20260505010903 | 8 | 333 | 12.9 | 22.5 | 0.00 | 0.00 | 0.00 | 80 | 1017.6 |
| 20260505010003 | 8 | 332 | 11.3 | 22.5 | 0.00 | 0.00 | 0.00 | 80 | 1017.6 |
| 20260505005403 | 8 | 330 | 12.9 | 24.1 | 0.00 | 0.00 | 0.00 | 80 | 1017.6 |
| 20260505004503 | 8 | 333 | 14.5 | 27.4 | 0.00 | 0.00 | 0.00 | 80 | 1017.6 |
| 20260505003603 | 8 | 333 | 12.9 | 20.9 | 0.00 | 0.00 | 0.00 | 80 | 1017.7 |
| 20260505002703 | 8 | 334 | 12.9 | 25.7 | 0.00 | 0.00 | 0.00 | 80 | 1017.8 |
| 20260505001803 | 8 | 336 | 16.1 | 25.7 | 0.00 | 0.00 | 0.00 | 80 | 1017.7 |
| 20260505000903 | 8 | 335 | 14.5 | 24.1 | 0.00 | 0.00 | 0.00 | 80 | 1017.7 |
| 20260505000003 | 8 | 335 | 14.5 | 24.1 | 0.00 | 0.00 | 0.00 | 80 | 1017.8 |
| 20260504235403 | 8 | 335 | 14.5 | 24.1 | 0.00 | 0.00 | 0.00 | 79 | 1017.8 |
| 20260504234503 | 8 | 333 | 12.9 | 22.5 | 0.00 | 0.00 | 0.00 | 79 | 1017.8 |
| 20260504233603 | 8 | 331 | 11.3 | 22.5 | 0.00 | 0.00 | 0.00 | 78 | 1017.8 |
| 20260504232703 | 9 | 335 | 12.9 | 24.1 | 0.00 | 0.00 | 0.00 | 78 | 1017.8 |
| 20260504231803 | 9 | 333 | 14.5 | 24.1 | 0.00 | 0.00 | 0.00 | 77 | 1017.8 |
| 20260504230903 | 10 | 334 | 14.5 | 24.1 | 0.00 | 0.00 | 0.00 | 76 | 1017.9 |
| 20260504230003 | 10 | 333 | 14.5 | 27.4 | 0.00 | 0.00 | 0.00 | 75 | 1018.0 |
| 20260504225403 | 10 | 332 | 11.3 | 22.5 | 0.00 | 0.00 | 0.00 | 75 | 1017.9 |
| 20260504224503 | 10 | 335 | 14.5 | 22.5 | 0.00 | 0.00 | 0.00 | 75 | 1018.0 |
| 20260504223603 | 10 | 336 | 12.9 | 20.9 | 0.00 | 0.00 | 0.00 | 75 | 1018.0 |
| 20260504222703 | 10 | 336 | 12.9 | 19.3 | 0.00 | 0.00 | 0.00 | 75 | 1018.1 |
| 20260504221803 | 10 | 336 | 11.3 | 19.3 | 0.00 | 0.00 | 0.00 | 75 | 1018.1 |
| 20260504220903 | 10 | 334 | 12.9 | 20.9 | 0.00 | 0.03 | 0.00 | 76 | 1018.1 |
| 20260504220003 | 11 | 333 | 14.5 | 22.5 | 0.00 | 0.03 | 0.00 | 75 | 1018.1 |
| 20260504215403 | 11 | 336 | 12.9 | 22.5 | 0.00 | 0.05 | 0.00 | 75 | 1018.1 |
| 20260504214503 | 11 | 337 | 14.5 | 24.1 | 0.00 | 0.10 | 0.00 | 76 | 1018.1 |
| 20260504213603 | 11 | 339 | 14.5 | 27.4 | 0.00 | 0.18 | 0.00 | 77 | 1018.2 |
| 20260504212703 | 11 | 338 | 11.3 | 20.9 | 0.00 | 0.20 | 0.00 | 78 | 1018.2 |
| 20260504211803 | 11 | 341 | 11.3 | 22.5 | 0.00 | 0.23 | 0.00 | 78 | 1018.1 |
| 20260504210903 | 11 | 343 | 8.0 | 17.7 | 0.00 | 0.28 | 0.00 | 78 | 1018.1 |
| 20260504210003 | 11 | 346 | 8.0 | 16.1 | 0.00 | 0.33 | 0.00 | 78 | 1018.1 |
| 20260504205403 | 11 | 349 | 8.0 | 16.1 | 0.00 | 0.33 | 0.00 | 78 | 1018.0 |
| 20260504204503 | 11 | 345 | 8.0 | 16.1 | 0.00 | 0.33 | 0.00 | 79 | 1018.0 |
| 20260504203603 | 11 | 342 | 9.7 | 17.7 | 0.00 | 0.33 | 0.00 | 79 | 1018.0 |
| 20260504202703 | 11 | 337 | 11.3 | 19.3 | 0.00 | 0.36 | 0.00 | 79 | 1017.8 |
| 20260504201803 | 12 | 337 | 11.3 | 19.3 | 0.00 | 0.36 | 0.00 | 79 | 1017.6 |
| 20260504200903 | 12 | 338 | 9.7 | 19.3 | 0.00 | 0.41 | 0.00 | 78 | 1017.6 |
| 20260504200003 | 12 | 335 | 9.7 | 17.7 | 0.00 | 0.41 | 0.00 | 77 | 1017.5 |
| 20260504195403 | 12 | 338 | 8.0 | 14.5 | 0.00 | 0.43 | 0.00 | 76 | 1017.5 |
| 20260504194503 | 12 | 348 | 9.7 | 17.7 | 0.00 | 0.43 | 0.00 | 76 | 1017.3 |
| 20260504193603 | 12 | 348 | 9.7 | 14.5 | 0.00 | 0.46 | 0.00 | 75 | 1017.3 |
| 20260504192703 | 12 | 353 | 9.7 | 19.3 | 0.00 | 0.51 | 0.00 | 75 | 1017.3 |
| 20260504191803 | 12 | 351 | 11.3 | 24.1 | 0.00 | 0.51 | 0.00 | 74 | 1017.2 |
| 20260504190903 | 12 | 352 | 9.7 | 19.3 | 0.00 | 0.51 | 0.00 | 74 | 1017.2 |
| 20260504190003 | 12 | 348 | 12.9 | 22.5 | 0.00 | 0.51 | 0.00 | 74 | 1017.1 |
| 20260504185403 | 13 | 345 | 12.9 | 22.5 | 0.00 | 0.53 | 0.00 | 74 | 1017.1 |
| 20260504184503 | 13 | 347 | 11.3 | 22.5 | 0.00 | 0.56 | 0.00 | 74 | 1017.0 |
| 20260504183603 | 13 | 348 | 11.3 | 19.3 | 0.00 | 0.56 | 0.00 | 73 | 1017.0 |
| 20260504182703 | 13 | 346 | 9.7 | 17.7 | 0.00 | 0.56 | 0.00 | 73 | 1016.9 |
| 20260504181803 | 13 | 340 | 9.7 | 17.7 | 0.00 | 0.56 | 0.00 | 73 | 1016.9 |
| 20260504180903 | 13 | 342 | 12.9 | 22.5 | 0.00 | 0.56 | 0.00 | 73 | 1016.8 |
| 20260504180003 | 13 | 344 | 11.3 | 22.5 | 0.00 | 0.56 | 0.00 | 72 | 1016.8 |
| 20260504175404 | 13 | 344 | 11.3 | 20.9 | 0.00 | 0.56 | 0.00 | 73 | 1016.8 |
| 20260504174503 | 13 | 344 | 12.9 | 24.1 | 0.00 | 0.56 | 0.00 | 72 | 1016.7 |
| 20260504173603 | 13 | 349 | 14.5 | 20.9 | 0.00 | 0.56 | 0.00 | 72 | 1016.7 |
| 20260504172703 | 13 | 348 | 11.3 | 24.1 | 0.00 | 0.56 | 0.00 | 72 | 1016.7 |
| 20260504171803 | 13 | 346 | 12.9 | 20.9 | 0.00 | 0.56 | 0.00 | 72 | 1016.7 |
| 20260504170903 | 13 | 349 | 12.9 | 22.5 | 0.00 | 0.56 | 0.00 | 71 | 1016.7 |
| 20260504150903 | 15 | 359 | 9.7 | 20.9 | 0.00 | 0.61 | 0.00 | 65 | 1016.8 |
| 20260504140903 | 15 | 355 | 6.4 | 16.1 | 0.00 | 0.61 | 0.00 | 68 | 1016.8 |
| 20260504081803 | 11 | 352 | 8.0 | 17.7 | 0.00 | 0.84 | 0.00 | 89 | 1015.9 |
| 20260504080903 | 11 | 346 | 9.7 | 17.7 | 0.00 | 0.84 | 0.00 | 90 | 1015.9 |